{"data":{"norad_id":67535,"intl_designator":"2026-014D","name":"STARLINK-36574","alt_names":[],"object_type":"PAYLOAD","status":"ACTIVE","operator":null,"country":"US","launch_date":"2026-01-22","launch_site_code":"AFWTR","launch_vehicle":null,"mission":null,"orbit_class":"UNKNOWN","rcs_meters":null,"size_class":null,"mass_kg":null,"dimensions":null,"purposes":["comms"],"wikipedia_slug":null,"has_3d_model":false,"image_url":null,"decayed_at":null,"tle_current":{"epoch":"2026-05-25T03:42:53.697888Z","epoch_age_seconds":64973,"freshness":"FRESH","line1":"1 67535U 26014D   26145.15478817  .00005175  00000+0  16251-3 0  9993","line2":"2 67535  97.2866  32.2266 0001592 100.0708 260.0714 15.33448033 20501","mean_motion":15.33448033,"eccentricity":0.0001592,"inclination_deg":97.2866,"raan_deg":32.2266,"arg_perigee_deg":100.0708,"mean_anomaly_deg":260.0714,"bstar":0.00016251,"rev_number":2050,"period_min":93.906018920173,"perigee_km":464.44463797175,"apogee_km":466.62366286605,"semimajor_km":6843.6711504189,"source":"CELESTRAK","updated_at":"2026-05-25T13:38:21.607051Z"}}}